NKS1392 KFLL-KMYR

Flight info

Callsign NKS1392
Flight time 1h 18m
Altitude 33000
Route AGERS1 DUCEN Q87 JROSS
Aircraft A21N/M-SDE2E3FGHIRWXY/LB1

Departure

Time 2026-05-04 02:44
Airport Fort Lauderdale Hollywood International Airport (KFLL)

Arrival

Time 2026-05-04 04:02
Airport Myrtle Beach International Airport (KMYR)
Time Latitude Longitude Altitude Speed Heading
2026-05-04 02:10 26.07055 -80.14667 28 ft 0 kts 17°
2026-05-04 02:31 26.07033 -80.14674 28 ft 4 kts 15°
2026-05-04 02:32 26.07014 -80.14679 29 ft 2 kts
2026-05-04 02:32 26.07003 -80.14678 30 ft 2 kts 320°
2026-05-04 02:32 26.06997 -80.14668 30 ft 2 kts 285°
2026-05-04 02:32 26.06995 -80.14657 31 ft 2 kts 286°
2026-05-04 02:33 26.06995 -80.14654 31 ft 0 kts 285°
2026-05-04 02:34 26.06995 -80.14655 31 ft 1 kts 284°
2026-05-04 02:35 26.06994 -80.14670 31 ft 4 kts 266°
2026-05-04 02:35 26.06978 -80.14703 31 ft 7 kts 228°
2026-05-04 02:35 26.06938 -80.14711 33 ft 0 kts 170°
2026-05-04 02:35 26.06935 -80.14709 33 ft 2 kts 164°
2026-05-04 02:36 26.06915 -80.14693 34 ft 5 kts 140°
2026-05-04 02:36 26.06881 -80.14657 36 ft 7 kts 136°
2026-05-04 02:36 26.06847 -80.14619 37 ft 7 kts 135°
2026-05-04 02:36 26.06805 -80.14590 38 ft 7 kts 168°
2026-05-04 02:37 26.06772 -80.14619 39 ft 6 kts 238°
2026-05-04 02:37 26.06767 -80.14675 39 ft 8 kts 270°
2026-05-04 02:37 26.06767 -80.14747 39 ft 10 kts 270°
2026-05-04 02:37 26.06767 -80.14823 40 ft 10 kts 270°
2026-05-04 02:38 26.06768 -80.14907 39 ft 12 kts 270°
2026-05-04 02:38 26.06768 -80.14978 38 ft 4 kts 270°
2026-05-04 02:38 26.06768 -80.14993 37 ft 0 kts 270°
2026-05-04 02:39 26.06768 -80.14997 37 ft 2 kts 271°
2026-05-04 02:39 26.06768 -80.15026 37 ft 6 kts 271°
2026-05-04 02:39 26.06769 -80.15081 36 ft 8 kts 273°
2026-05-04 02:40 26.06770 -80.15110 36 ft 0 kts 263°
2026-05-04 02:40 26.06763 -80.15121 36 ft 5 kts 235°
2026-05-04 02:40 26.06726 -80.15134 36 ft 5 kts 199°
2026-05-04 02:41 26.06700 -80.15166 37 ft 7 kts 241°
2026-05-04 02:41 26.06696 -80.15239 36 ft 13 kts 270°
2026-05-04 02:41 26.06697 -80.15363 35 ft 18 kts 270°
2026-05-04 02:41 26.06698 -80.15505 30 ft 18 kts 270°
2026-05-04 02:42 26.06699 -80.15637 31 ft 16 kts 270°
2026-05-04 02:42 26.06699 -80.15749 25 ft 9 kts 270°
2026-05-04 02:42 26.06687 -80.15802 22 ft 3 kts 240°
2026-05-04 02:42 26.06658 -80.15818 20 ft 7 kts 194°
2026-05-04 02:43 26.06601 -80.15808 19 ft 9 kts 144°
2026-05-04 02:43 26.06589 -80.15731 22 ft 22 kts 91°
2026-05-04 02:43 26.06588 -80.15273 34 ft 97 kts 90°
2026-05-04 02:43 26.06582 -80.14244 53 ft 168 kts 89°
2026-05-04 02:44 26.06567 -80.12876 839 ft 180 kts 89°
2026-05-04 02:44 26.06569 -80.11430 1713 ft 195 kts 88°
2026-05-04 02:44 26.06942 -80.09754 1433 ft 259 kts 60°
2026-05-04 02:44 26.08054 -80.08223 1751 ft 262 kts 42°
2026-05-04 02:45 26.09685 -80.07030 1885 ft 296 kts 26°
2026-05-04 02:45 26.11521 -80.06120 2973 ft 271 kts 20°
2026-05-04 02:45 26.13311 -80.05495 3369 ft 271 kts
2026-05-04 02:45 26.15195 -80.05387 3757 ft 275 kts 355°
2026-05-04 02:46 26.17072 -80.05608 3976 ft 268 kts 348°
2026-05-04 02:46 26.18912 -80.06037 4044 ft 270 kts 343°
2026-05-04 02:46 26.20591 -80.06882 4108 ft 264 kts 320°
2026-05-04 02:46 26.21882 -80.08305 4144 ft 264 kts 307°
2026-05-04 02:47 26.22928 -80.09942 4146 ft 259 kts 300°
2026-05-04 02:47 26.23837 -80.11714 4054 ft 263 kts 296°
2026-05-04 02:47 26.24687 -80.13499 4049 ft 261 kts 305°
2026-05-04 02:47 26.25915 -80.15021 4356 ft 267 kts 316°
2026-05-04 02:48 26.27339 -80.16344 5364 ft 266 kts 320°
2026-05-04 02:48 26.28858 -80.17535 6504 ft 270 kts 323°
2026-05-04 02:48 26.30465 -80.18651 7492 ft 275 kts 326°
2026-05-04 02:48 26.32143 -80.19713 8523 ft 279 kts 327°
2026-05-04 02:49 26.33872 -80.20737 9582 ft 284 kts 328°
2026-05-04 02:49 26.35707 -80.21621 10512 ft 292 kts 337°
2026-05-04 02:49 26.37688 -80.22245 11387 ft 299 kts 342°
2026-05-04 02:49 26.39739 -80.22724 12190 ft 300 kts 344°
2026-05-04 02:50 26.41814 -80.23108 12553 ft 309 kts 346°
2026-05-04 02:50 26.44040 -80.23456 12845 ft 338 kts 348°
2026-05-04 02:50 26.46498 -80.23787 12971 ft 372 kts 349°
2026-05-04 02:50 26.49193 -80.24103 13025 ft 401 kts 350°
2026-05-04 02:51 26.51926 -80.24376 13022 ft 396 kts 351°
2026-05-04 02:51 26.54660 -80.24680 13046 ft 396 kts 349°
2026-05-04 02:51 26.57402 -80.25043 13497 ft 397 kts 348°
2026-05-04 02:51 26.60149 -80.25441 14358 ft 399 kts 347°
2026-05-04 02:52 26.62928 -80.25865 15149 ft 405 kts 347°
2026-05-04 02:52 26.65738 -80.26309 15966 ft 411 kts 346°
2026-05-04 02:52 26.68561 -80.26896 16767 ft 414 kts 340°
2026-05-04 02:52 26.71347 -80.27756 17558 ft 417 kts 336°
2026-05-04 02:53 26.74123 -80.28746 18357 ft 422 kts 334°
2026-05-04 02:53 26.76916 -80.29818 19034 ft 426 kts 333°
2026-05-04 02:53 26.79726 -80.30942 19714 ft 430 kts 333°
2026-05-04 02:53 26.82556 -80.32102 20375 ft 435 kts 332°
2026-05-04 02:54 26.85410 -80.33287 21012 ft 440 kts 332°
2026-05-04 02:54 26.88294 -80.34494 21642 ft 445 kts 332°
2026-05-04 02:54 26.91210 -80.35713 22281 ft 450 kts 332°
2026-05-04 02:54 26.94162 -80.36936 22907 ft 455 kts 332°
2026-05-04 02:55 27.00175 -80.39395 24067 ft 464 kts 332°
2026-05-04 02:55 27.03186 -80.40609 24651 ft 467 kts 332°
2026-05-04 02:55 27.06256 -80.41847 25226 ft 469 kts 331°
2026-05-04 02:56 27.09319 -80.43130 25809 ft 472 kts 330°
2026-05-04 02:56 27.12401 -80.44456 26422 ft 474 kts 330°
2026-05-04 02:56 27.15473 -80.45795 27132 ft 472 kts 330°
2026-05-04 02:56 27.18521 -80.47129 27961 ft 469 kts 329°
2026-05-04 02:57 27.21547 -80.48455 28796 ft 465 kts 329°
2026-05-04 02:57 27.24550 -80.49776 29642 ft 462 kts 329°
2026-05-04 02:57 27.27534 -80.51089 30443 ft 459 kts 328°
2026-05-04 02:57 27.30502 -80.52398 31036 ft 459 kts 328°
2026-05-04 02:58 27.33466 -80.53697 31715 ft 456 kts 328°
2026-05-04 02:58 27.35444 -80.54537 31992 ft 459 kts 329°
2026-05-04 02:58 27.38448 -80.55779 32495 ft 460 kts 329°
2026-05-04 02:58 27.41436 -80.56984 32800 ft 453 kts 329°
2026-05-04 02:59 27.44416 -80.58179 32940 ft 457 kts 329°
2026-05-04 02:59 27.50469 -80.60615 33021 ft 463 kts 329°
2026-05-04 03:00 27.56519 -80.63032 33046 ft 459 kts 329°
2026-05-04 03:00 27.62540 -80.65433 33046 ft 459 kts 329°
2026-05-04 03:01 27.68540 -80.67831 33037 ft 460 kts 329°
2026-05-04 03:01 27.74577 -80.70243 33030 ft 459 kts 329°
2026-05-04 03:02 27.80601 -80.72650 33032 ft 460 kts 328°
2026-05-04 03:02 27.86646 -80.75072 33046 ft 461 kts 328°
2026-05-04 03:03 27.92696 -80.77494 33042 ft 460 kts 328°
2026-05-04 03:03 27.98727 -80.79912 33046 ft 461 kts 328°
2026-05-04 03:04 28.04775 -80.82343 33055 ft 461 kts 328°
2026-05-04 03:04 28.10818 -80.84771 33050 ft 460 kts 328°
2026-05-04 03:05 28.16851 -80.87199 33050 ft 460 kts 328°
2026-05-04 03:05 28.22850 -80.89617 33034 ft 460 kts 328°
2026-05-04 03:06 28.28879 -80.92047 33040 ft 459 kts 328°
2026-05-04 03:06 28.34907 -80.94482 33044 ft 459 kts 328°
2026-05-04 03:07 28.40941 -80.96924 33051 ft 460 kts 328°
2026-05-04 03:07 28.46955 -80.99357 33055 ft 458 kts 328°
2026-05-04 03:08 28.52966 -81.01794 33060 ft 459 kts 328°
2026-05-04 03:08 28.58985 -81.04240 33071 ft 459 kts 328°
2026-05-04 03:09 28.64995 -81.06683 33084 ft 458 kts 328°
2026-05-04 03:09 28.70957 -81.09110 33094 ft 458 kts 328°
2026-05-04 03:10 28.76968 -81.11560 33093 ft 458 kts 328°
2026-05-04 03:10 28.82964 -81.14007 33090 ft 457 kts 328°
2026-05-04 03:11 28.88947 -81.16451 33090 ft 457 kts 328°
2026-05-04 03:11 28.94927 -81.18900 33095 ft 457 kts 328°
2026-05-04 03:12 29.00903 -81.21347 33117 ft 455 kts 328°
2026-05-04 03:12 29.06865 -81.23792 33111 ft 455 kts 329°
2026-05-04 03:13 29.12827 -81.26240 33113 ft 455 kts 329°
2026-05-04 03:13 29.18781 -81.28687 33102 ft 454 kts 329°
2026-05-04 03:14 29.24702 -81.31068 33099 ft 460 kts 335°
2026-05-04 03:14 29.27959 -81.31529 33122 ft 484 kts 351°
2026-05-04 03:14 29.31368 -81.31244 33114 ft 495 kts 357°
2026-05-04 03:15 29.38221 -81.30148 33105 ft 497 kts 359°
2026-05-04 03:15 29.45037 -81.28877 33107 ft 496 kts
2026-05-04 03:16 29.51863 -81.27559 33107 ft 497 kts
2026-05-04 03:16 29.58688 -81.26225 33103 ft 496 kts
2026-05-04 03:17 29.65483 -81.24891 33101 ft 495 kts
2026-05-04 03:17 29.72287 -81.23553 33098 ft 496 kts
2026-05-04 03:18 29.79038 -81.22224 33112 ft 495 kts
2026-05-04 03:18 29.85828 -81.20883 33120 ft 495 kts
2026-05-04 03:19 29.92617 -81.19542 33121 ft 496 kts
2026-05-04 03:19 29.99420 -81.18196 33112 ft 495 kts
2026-05-04 03:20 30.06219 -81.16846 33117 ft 495 kts
2026-05-04 03:20 30.12972 -81.15506 33110 ft 496 kts
2026-05-04 03:21 30.19778 -81.14154 33101 ft 495 kts
2026-05-04 03:21 30.26564 -81.12802 33097 ft 495 kts
2026-05-04 03:22 30.33349 -81.11450 33098 ft 496 kts
2026-05-04 03:22 30.40151 -81.10093 33102 ft 496 kts
2026-05-04 03:23 30.46944 -81.08733 33101 ft 495 kts
2026-05-04 03:23 30.53747 -81.07371 33104 ft 496 kts
2026-05-04 03:24 30.60561 -81.06006 33106 ft 497 kts
2026-05-04 03:24 30.67365 -81.04639 33108 ft 496 kts
2026-05-04 03:25 30.74163 -81.03272 33104 ft 497 kts
2026-05-04 03:25 30.80981 -81.01899 33104 ft 497 kts
2026-05-04 03:26 30.87798 -81.00523 33106 ft 497 kts
2026-05-04 03:26 30.94568 -80.99154 33107 ft 497 kts
2026-05-04 03:27 31.01391 -80.97775 33110 ft 498 kts
2026-05-04 03:27 31.08217 -80.96391 33107 ft 497 kts
2026-05-04 03:28 31.15035 -80.95007 33109 ft 498 kts
2026-05-04 03:28 31.21863 -80.93621 33107 ft 499 kts
2026-05-04 03:29 31.28706 -80.92227 33104 ft 498 kts
2026-05-04 03:29 31.35532 -80.90835 33104 ft 498 kts
2026-05-04 03:30 31.42365 -80.89440 33103 ft 499 kts
2026-05-04 03:30 31.49209 -80.88041 33098 ft 499 kts
2026-05-04 03:31 31.56048 -80.86639 33096 ft 498 kts
2026-05-04 03:31 31.62842 -80.85246 33097 ft 499 kts
2026-05-04 03:32 31.69687 -80.83840 33093 ft 499 kts
2026-05-04 03:32 31.76517 -80.82434 33093 ft 498 kts
2026-05-04 03:33 31.83358 -80.81023 33097 ft 499 kts
2026-05-04 03:33 31.90202 -80.79611 33091 ft 499 kts
2026-05-04 03:34 31.97033 -80.78198 33102 ft 497 kts
2026-05-04 03:34 32.03852 -80.76785 33116 ft 498 kts
2026-05-04 03:35 32.10684 -80.75369 33120 ft 498 kts
2026-05-04 03:35 32.17466 -80.73959 33128 ft 497 kts
2026-05-04 03:36 32.24279 -80.72542 33121 ft 497 kts
2026-05-04 03:36 32.31089 -80.71123 33125 ft 497 kts
2026-05-04 03:37 32.37892 -80.69703 33124 ft 496 kts
2026-05-04 03:37 32.44680 -80.68283 33115 ft 495 kts
2026-05-04 03:38 32.51472 -80.66860 33108 ft 495 kts
2026-05-04 03:38 32.58262 -80.65435 33104 ft 495 kts
2026-05-04 03:39 32.64995 -80.64017 33112 ft 494 kts
2026-05-04 03:39 32.71613 -80.61641 33145 ft 510 kts 27°
2026-05-04 03:39 32.74467 -80.59081 33151 ft 518 kts 43°
2026-05-04 03:40 32.76783 -80.55780 33143 ft 523 kts 53°
2026-05-04 03:40 32.80811 -80.48584 33125 ft 521 kts 57°
2026-05-04 03:41 32.84694 -80.41329 33118 ft 520 kts 57°
2026-05-04 03:41 32.88584 -80.34109 33135 ft 523 kts 56°
2026-05-04 03:42 32.92548 -80.26860 33141 ft 522 kts 56°
2026-05-04 03:42 32.96504 -80.19719 33144 ft 500 kts 56°
2026-05-04 03:42 32.98398 -80.16319 32835 ft 490 kts 56°
2026-05-04 03:43 33.00293 -80.12931 31945 ft 493 kts 56°
2026-05-04 03:43 33.02212 -80.09514 30944 ft 497 kts 55°
2026-05-04 03:43 33.04146 -80.06082 30050 ft 499 kts 55°
2026-05-04 03:43 33.06079 -80.02659 29154 ft 497 kts 55°
2026-05-04 03:44 33.07937 -79.99186 28236 ft 495 kts 58°
2026-05-04 03:44 33.09676 -79.95645 27306 ft 494 kts 57°
2026-05-04 03:44 33.11806 -79.92474 26352 ft 488 kts 40°
2026-05-04 03:44 33.14404 -79.89902 25522 ft 482 kts 34°
2026-05-04 03:45 33.16173 -79.88326 25099 ft 476 kts 33°
2026-05-04 03:45 33.18832 -79.86030 24444 ft 467 kts 32°
2026-05-04 03:45 33.21463 -79.83799 23802 ft 460 kts 32°
2026-05-04 03:45 33.24896 -79.80911 22808 ft 451 kts 32°
2026-05-04 03:46 33.26621 -79.79464 22304 ft 446 kts 32°
2026-05-04 03:46 33.29076 -79.77231 21549 ft 443 kts 41°
2026-05-04 03:46 33.30946 -79.74384 20830 ft 442 kts 59°
2026-05-04 03:46 33.32162 -79.71028 20146 ft 438 kts 69°
2026-05-04 03:47 33.33129 -79.67604 19485 ft 432 kts 71°
2026-05-04 03:47 33.34040 -79.64209 18820 ft 426 kts 71°
2026-05-04 03:47 33.34947 -79.60850 18129 ft 421 kts 70°
2026-05-04 03:47 33.35868 -79.57550 17440 ft 414 kts 70°
2026-05-04 03:48 33.36806 -79.54324 16831 ft 407 kts 69°
2026-05-04 03:48 33.37739 -79.51222 16244 ft 385 kts 68°
2026-05-04 03:48 33.38648 -79.48288 15470 ft 369 kts 68°
2026-05-04 03:48 33.39544 -79.45473 14728 ft 355 kts 67°
2026-05-04 03:49 33.40425 -79.42769 14011 ft 342 kts 66°
2026-05-04 03:49 33.41290 -79.40168 13205 ft 331 kts 66°
2026-05-04 03:49 33.42148 -79.37640 12327 ft 324 kts 66°
2026-05-04 03:49 33.43000 -79.35168 11480 ft 318 kts 65°
2026-05-04 03:50 33.43847 -79.32753 10720 ft 310 kts 65°
2026-05-04 03:50 33.44672 -79.30421 10115 ft 298 kts 65°
2026-05-04 03:50 33.45476 -79.28171 9343 ft 291 kts 64°
2026-05-04 03:50 33.46593 -79.26217 8509 ft 282 kts 38°
2026-05-04 03:51 33.48261 -79.25086 7685 ft 274 kts 18°
2026-05-04 03:51 33.50071 -79.24428 6912 ft 269 kts 13°
2026-05-04 03:51 33.51898 -79.23877 6426 ft 268 kts 12°
2026-05-04 03:51 33.53711 -79.23367 5950 ft 267 kts 11°
2026-05-04 03:52 33.55509 -79.22873 5522 ft 272 kts 11°
2026-05-04 03:52 33.57346 -79.22372 5320 ft 267 kts 11°
2026-05-04 03:52 33.59164 -79.21877 5229 ft 269 kts 11°
2026-05-04 03:52 33.60994 -79.21379 5198 ft 268 kts 11°
2026-05-04 03:53 33.62752 -79.20668 5188 ft 271 kts 31°
2026-05-04 03:53 33.64264 -79.19290 5179 ft 273 kts 39°
2026-05-04 03:53 33.65683 -79.17797 5174 ft 272 kts 40°
2026-05-04 03:53 33.67104 -79.16285 5168 ft 273 kts 40°
2026-05-04 03:54 33.68533 -79.14788 5168 ft 272 kts 39°
2026-05-04 03:54 33.69996 -79.13390 5168 ft 271 kts 27°
2026-05-04 03:54 33.71711 -79.12453 5172 ft 271 kts 19°
2026-05-04 03:54 33.73503 -79.11671 5167 ft 270 kts 17°
2026-05-04 03:55 33.75221 -79.10967 5166 ft 255 kts 17°
2026-05-04 03:55 33.76861 -79.10307 5159 ft 236 kts 16°
2026-05-04 03:55 33.78451 -79.09674 5167 ft 244 kts 16°
2026-05-04 03:55 33.80164 -79.08999 5173 ft 270 kts 16°
2026-05-04 03:56 33.81921 -79.08311 5172 ft 263 kts 16°
2026-05-04 03:56 33.83661 -79.07628 5168 ft 263 kts 16°
2026-05-04 03:56 33.85306 -79.06757 5174 ft 264 kts 36°
2026-05-04 03:56 33.86481 -79.05050 5195 ft 269 kts 66°
2026-05-04 03:57 33.86842 -79.02869 5208 ft 268 kts 92°
2026-05-04 03:57 33.86727 -79.00628 5176 ft 266 kts 94°
2026-05-04 03:57 33.86342 -78.98570 5217 ft 241 kts 120°
2026-05-04 03:57 33.85250 -78.97210 5203 ft 217 kts 155°
2026-05-04 03:58 33.82625 -78.96463 4304 ft 185 kts 175°
2026-05-04 03:58 33.81361 -78.96170 3677 ft 184 kts 170°
2026-05-04 03:58 33.80133 -78.95832 3188 ft 176 kts 170°
2026-05-04 03:59 33.78962 -78.95524 2707 ft 169 kts 170°
2026-05-04 03:59 33.77811 -78.95219 2394 ft 175 kts 171°
2026-05-04 03:59 33.76647 -78.94926 2060 ft 166 kts 171°
2026-05-04 03:59 33.75550 -78.94664 1596 ft 155 kts 172°
2026-05-04 04:00 33.74484 -78.94420 1355 ft 152 kts 172°
2026-05-04 04:00 33.73484 -78.94182 1081 ft 142 kts 172°
2026-05-04 04:00 33.72519 -78.93952 782 ft 140 kts 171°
2026-05-04 04:00 33.71510 -78.93707 575 ft 158 kts 170°
2026-05-04 04:01 33.70466 -78.93442 361 ft 150 kts 170°
2026-05-04 04:01 33.69449 -78.93193 139 ft 148 kts 171°
2026-05-04 04:01 33.68470 -78.92952 33 ft 135 kts 170°
2026-05-04 04:01 33.67681 -78.92759 31 ft 94 kts 169°
2026-05-04 04:02 33.67324 -78.92665 31 ft 13 kts 144°
2026-05-04 04:02 33.67308 -78.92587 31 ft 8 kts 85°
2026-05-04 04:02 33.67317 -78.92525 31 ft 7 kts 79°
2026-05-04 04:02 33.67327 -78.92472 31 ft 7 kts 77°
2026-05-04 04:03 33.67338 -78.92406 31 ft 9 kts 78°
2026-05-04 04:03 33.67373 -78.92347 31 ft 10 kts 26°
2026-05-04 04:03 33.67443 -78.92351 31 ft 10 kts 348°
2026-05-04 04:03 33.67519 -78.92370 32 ft 12 kts 347°
2026-05-04 04:04 33.67602 -78.92391 32 ft 11 kts 348°
2026-05-04 04:04 33.67679 -78.92410 32 ft 12 kts 344°
2026-05-04 04:04 33.67760 -78.92451 32 ft 13 kts 336°
2026-05-04 04:04 33.67833 -78.92490 32 ft 9 kts 341°
2026-05-04 04:05 33.67891 -78.92475 32 ft 8 kts 32°
2026-05-04 04:05 33.67911 -78.92435 32 ft 3 kts 65°
2026-05-04 04:05 33.67919 -78.92400 32 ft 6 kts 73°
2026-05-04 04:05 33.67952 -78.92377 32 ft 5 kts
2026-05-04 04:06 33.67973 -78.92383 32 ft 1 kts 349°
2026-05-04 04:06 33.67974 -78.92383 32 ft 0 kts 349°